DW8427 Weather Reports


Display with metric or nautical units.
time (UTC)temp
F
wind
direction
speed
MPH
gust
MPH
rain 1hr
in
rain 24hr
in
rain mn
in
humidity
%
barometer
mb
20211205054644 48 139 0.0 0.0 0.00 0.01 0.00 93 1025.3
20211205053035 48 221 0.0 2.0 0.00 0.01 0.00 93 1025.2
20211205050023 48 329 0.0 2.0 0.00 0.01 0.00 92 1024.7
20211205043052 49 209 0.0 2.0 0.00 0.01 0.00 92 1024.8
20211205041633 49 76 0.0 1.0 0.00 0.01 0.00 91 1024.6
20211205041511 49 83 0.0 0.0 0.00 0.01 0.00 91 1024.6
20211205034617 49 143 0.0 0.0 0.00 0.01 0.00 91 1024.3
20211205033146 49 79 0.0 0.0 0.00 0.01 0.00 91 1024.1
20211205031655 49 336 0.0 0.0 0.00 0.01 0.00 91 1024.1
20211205030057 49 336 0.0 0.0 0.00 0.01 0.00 91 1024.2
20211205023207 49 139 0.0 3.0 0.00 0.01 0.00 90 1024.1
20211205021600 50 205 0.0 0.0 0.00 0.01 0.00 91 1024.0
20211205020101 49 248 0.0 0.0 0.00 0.01 0.00 90 1023.9
20211205013013 50 359 0.0 2.0 0.00 0.01 0.00 90 1024.0
20211205004522 49 267 0.0 0.0 0.00 0.01 0.00 90 1023.6
20211205003012 50 267 0.0 0.0 0.00 0.01 0.00 89 1023.4
20211205001503 51 269 0.0 2.0 0.00 0.01 0.00 88 1023.3
20211205000010 51 248 0.0 2.0 0.00 0.01 0.00 87 1023.2
20211204234501 52 255 0.0 3.0 0.00 0.01 0.00 86 1023.1
20211204233003 52 283 0.0 3.0 0.00 0.01 0.00 85 1022.9
20211204231635 52 255 1.0 3.0 0.00 0.01 0.00 85 1022.8
20211204230254 52 318 0.0 3.0 0.00 0.01 0.00 85 1022.8
20211204224644 51 285 0.0 3.0 0.00 0.01 0.00 86 1022.8
20211204223309 51 260 0.0 5.0 0.00 0.01 0.00 85 1022.8
20211204221636 51 199 0.0 2.0 0.00 0.01 0.00 86 1022.7
20211204220118 51 253 2.0 4.0 0.00 0.01 0.00 86 1022.7
20211204214621 51 287 0.0 5.0 0.00 0.01 0.00 86 1022.7
20211204213153 51 274 0.0 5.0 0.00 0.01 0.00 85 1022.6
20211204211617 52 218 0.0 4.0 0.00 0.01 0.00 84 1022.8
20211204210200 52 293 1.0 5.0 0.00 0.01 0.00 84 1022.8
20211204204650 52 220 0.0 4.0 0.00 0.01 0.00 84 1022.8
20211204203146 52 295 0.0 5.0 0.00 0.01 0.00 84 1022.8
20211204201601 52 295 1.0 5.0 0.00 0.01 0.00 85 1022.7
20211204200122 53 276 1.0 4.0 0.00 0.01 0.00 84 1022.9
20211204194710 52 287 2.0 4.0 0.00 0.01 0.00 85 1023.0
20211204193209 51 226 0.0 3.0 0.00 0.01 0.00 87 1023.1
20211204191624 51 316 0.0 4.0 0.00 0.01 0.00 86 1023.1
20211204190145 50 129 0.0 3.0 0.00 0.01 0.00 88 1023.4
20211204184620 50 148 0.0 0.0 0.00 0.01 0.00 89 1023.6
20211204183118 49 243 1.0 2.0 0.00 0.01 0.00 90 1023.8
20211204181543 49 242 0.0 2.0 0.00 0.01 0.00 91 1023.9
20211204180046 48 308 1.0 5.0 0.00 0.01 0.00 91 1024.1
20211204174555 48 286 0.0 3.0 0.00 0.01 0.00 91 1024.1
20211204173111 47 342 1.0 4.0 0.00 0.01 0.00 91 1024.0
20211204171546 47 5 0.0 4.0 0.00 0.01 0.00 92 1023.9
20211204170041 48 311 1.0 4.0 0.00 0.01 0.00 92 1023.7
20211204164634 48 283 0.0 2.0 0.00 0.01 0.00 93 1023.4
20211204163027 48 134 0.0 0.0 0.00 0.01 0.00 93 1023.1
20211204161543 48 278 0.0 3.0 0.00 0.01 0.00 93 1022.8
20211204160048 48 124 0.0 0.0 0.00 0.01 0.00 94 1022.7
20211204154529 48 90 0.0 2.0 0.00 0.01 0.00 94 1022.6
20211204153053 48 279 0.0 1.0 0.00 0.01 0.00 94 1022.6
20211204151535 48 277 0.0 0.0 0.00 0.01 0.00 94 1022.4
20211204150031 48 152 0.0 2.0 0.00 0.01 0.00 94 1022.3
20211204144518 48 113 0.0 0.0 0.00 0.01 0.00 94 1022.2
20211204143018 48 99 0.0 0.0 0.00 0.01 0.00 94 1022.2
20211204141517 48 136 0.0 0.0 0.00 0.01 0.00 95 1022.3
20211204140015 48 136 0.0 0.0 0.00 0.01 0.00 95 1022.3
20211204134513 48 136 0.0 2.0 0.00 0.01 0.00 95 1022.3
20211204133011 48 134 0.0 0.0 0.00 0.01 0.00 95 1022.2
20211204131550 48 211 0.0 0.0 0.00 0.01 0.00 95 1021.8
20211204130019 48 311 0.0 1.0 0.00 0.01 0.00 95 1021.8
20211204124505 48 263 0.0 2.0 0.00 0.01 0.00 95 1021.6
20211204123003 48 153 1.0 3.0 0.00 0.01 0.00 96 1021.5
20211204121501 48 89 0.0 0.0 0.00 0.01 0.00 96 1021.4
20211204120003 48 93 0.0 2.0 0.00 0.01 0.00 96 1021.4
20211204114712 48 86 0.0 1.0 0.00 0.01 0.00 96 1021.3
20211204113141 48 119 1.0 4.0 0.00 0.01 0.00 96 1021.3
20211204111654 49 130 0.0 3.0 0.00 0.01 0.00 96 1021.3
20211204110200 48 138 0.0 3.0 0.00 0.01 0.00 95 1021.2
20211204103133 49 150 0.0 2.0 0.00 0.01 0.00 95 1021.5
20211204101625 49 89 0.0 3.0 0.00 0.01 0.00 95 1021.2
20211204100127 49 122 0.0 2.0 0.00 0.01 0.00 95 1021.2
20211204094703 49 146 0.0 1.0 0.00 0.01 0.00 95 1021.2
20211204093108 49 129 0.0 0.0 0.00 0.01 0.00 95 1021.1
20211204091657 49 140 0.0 2.0 0.00 0.01 0.00 95 1021.1
20211204090151 49 75 0.0 2.0 0.00 0.01 0.00 95 1021.1
20211204084716 49 141 0.0 1.0 0.00 0.01 0.00 95 1021.2
20211204083103 49 156 0.0 2.0 0.00 0.01 0.00 95 1021.1
20211204081607 49 89 0.0 0.0 0.00 0.01 0.00 95 1021.1
20211204080127 49 158 0.0 0.0 0.00 0.01 0.00 95 1021.1
20211204074634 49 143 0.0 0.0 0.00 0.01 0.01 95 1021.2
20211204073048 49 75 0.0 2.0 0.00 0.01 0.01 95 1021.0
20211204071627 49 70 0.0 0.0 0.00 0.01 0.01 95 1020.9
20211204070117 49 108 0.0 0.0 0.00 0.01 0.01 95 1020.7
20211204064606 49 120 0.0 3.0 0.00 0.01 0.01 95 1020.6
20211204063038 49 89 0.0 2.0 0.00 0.01 0.01 95 1020.4
20211204061555 49 78 0.0 0.0 0.00 0.01 0.01 95 1020.2
20211204060032 49 84 0.0 0.0 0.01 0.01 0.01 95 1020.0